STOCKHOLM/ARLANDA current weather conditions

sailwx.info

Wind from 330 at 10 knots

Air temperature 1.0° C
Visibility: greater than 3.2 NM
Dewpoint 1.0° C
Present weather: Light rain snow.

Last reported at 2015-Mar-30 22:20 UTC.
Time now 2015-Mar-31 00:20 UTC

Location: N 59°39' E 017°57'.
View on Google Maps.

See reports from other nearby stations

  
Tides and Currents Weather Stations Pressure Air Temp Water Temp Dewpoint Dewpoint Depression Visibility Wind Speed Wind Dir Waves Ship Positions
date/time (UTC)wind fromknots sea level pressurealtimeterstation pressurevisibilityair tempwater tempwave heightnotes
2015-Mar-30 23:20 320 10 3.2 1.0 Light rain snow.
2015-Mar-30 22:50 330 11 3.2 1.0 Light rain snow.
2015-Mar-30 22:20 330 10 3.2 1.0 Light rain snow.
2015-Mar-30 21:50 330 11 3.8 1.0 Light rain snow.
2015-Mar-30 21:20 330 10 3.2 1.0 Light rain snow.
2015-Mar-30 20:50 320 8 3.2 1.0 Light snow. Mist.
2015-Mar-30 20:20 320 7 2.1 1.0 Light snow. Mist.
2015-Mar-30 19:50 330 7 1.5-0.0 Light snow. Mist.
2015-Mar-30 19:20 330 8 2.2-0.0 Light snow. Mist.
2015-Mar-30 18:50 340 8 1.7 1.0 Light snow.
2015-Mar-30 18:20 350 8 2.2 1.0 Light snow.
2015-Mar-30 17:50 010 10 4.3 1.0 Light rain snow.
2015-Mar-30 17:20 010 11 5.4 2.0 Light rain.
2015-Mar-30 16:50 010 9 3.2 3.0 Light rain.
2015-Mar-30 16:20 360 8 5.4 3.0 Light rain.
2015-Mar-30 15:50 040 9 5.4 3.0 Light rain.
2015-Mar-30 15:20 040 8 5.4 3.0 Light rain.
2015-Mar-30 14:50 050 8 5.4 4.0 Light rain.
2015-Mar-30 14:20 050 9 5.4 4.0 Light rain.
2015-Mar-30 13:50 070 9 5.4 4.0 Light rain.
2015-Mar-30 13:20 080 10 5.4 5.0 Light rain.
2015-Mar-30 12:50 060 10 5.4 5.0 Light rain.
2015-Mar-30 12:20 040 10 4.3 5.0 Light rain.
2015-Mar-30 11:50 060 9 5.4 6.0 Light rain.
2015-Mar-30 11:20 050 9 5.4 6.0
2015-Mar-30 10:50 030 9 5.4 6.0
2015-Mar-30 10:20 040 8 5.4 6.0
2015-Mar-30 09:50 060 6 5.4 6.0
2015-Mar-30 09:20 060 7 5.4 5.0
2015-Mar-30 08:50 070 6 0.7 5.0 Mist.
2015-Mar-30 08:20 090 6 0.9 5.0 Mist.
2015-Mar-30 07:50 080 6 0.6 5.0 Mist.
2015-Mar-30 07:20 100 5 0.5 5.0 Mist.
2015-Mar-30 06:50 100 5 0.8 4.0 Mist.
2015-Mar-30 06:20 110 5 0.2 4.0 Fog.
2015-Mar-30 05:50 100 5 0.4 4.0 Fog.
2015-Mar-30 05:20 110 4 0.2 4.0 Fog.
2015-Mar-30 04:50 110 4 0.3 4.0 Fog.
2015-Mar-30 04:20 130 4 1.3 4.0 Mist.
2015-Mar-30 03:50 140 3 2.7 4.0 Mist.
2015-Mar-30 03:20 140 5 3.8 4.0 Mist.
2015-Mar-30 02:50 150 5 4.3 4.0 Light drizzle. Mist.
2015-Mar-30 02:20 150 5 3.8 4.0 Light rain. Mist.
2015-Mar-30 01:50 140 6 3.2 4.0 Light rain. Mist.
2015-Mar-30 01:20 140 6 3.2 4.0 Light rain.
2015-Mar-30 00:50 130 6 4.3 4.0 Mist.
2015-Mar-30 00:20 130 7 5.4 4.0 Light rain.
2015-Mar-29 23:50 150 6 5.4 4.0 Light rain.
2015-Mar-29 23:20 140 8 3.8 4.0 Mist.
2015-Mar-29 22:50 140 6 1.6 4.0 Drizzle.
2015-Mar-29 22:20 150 7 1.6 4.0 Drizzle.
2015-Mar-29 21:50 150 8 2.7 4.0 Mist.
2015-Mar-29 21:20 160 9 3.2 4.0 Mist.
2015-Mar-29 20:50 170 10 5.4 4.0
2015-Mar-29 20:20 170 11 4.9 4.0 Mist.
2015-Mar-29 19:50 180 10 5.4 4.0
2015-Mar-29 19:20 180 10 5.4 4.0
2015-Mar-29 18:50 170 8 5.4 4.0
2015-Mar-29 18:20 180 9 5.4 4.0 Light drizzle.
2015-Mar-29 17:50 180 9 5.4 4.0 Light drizzle.
2015-Mar-29 17:20 180 9 5.4 3.0 Drizzle.
2015-Mar-29 16:50 160 10 4.9 3.0 Drizzle.
2015-Mar-29 16:20 150 11 3.2 3.0 Light rain.
2015-Mar-29 15:50 140 13 5.4 3.0 Light rain.
2015-Mar-29 15:20 150 15 5.4 3.0 Light rain.
2015-Mar-29 14:50 140 15 3.8 3.0 Light rain.
2015-Mar-29 14:20 150 16 3.8 3.0 Light rain.
2015-Mar-29 13:50 150 17 5.4 3.0 Light rain.
2015-Mar-29 13:20 140 18 5.4 3.0 Drizzle.
2015-Mar-29 12:50 150 18 5.4 3.0 Drizzle.
2015-Mar-29 12:20 150 18 5.4 3.0 Light rain.
2015-Mar-29 11:50 150 20 4.3 4.0 Light rain.
2015-Mar-29 11:20 150 17 4.9 4.0 Light rain.
2015-Mar-29 10:50 160 17 5.4 4.0 Light rain.
2015-Mar-29 10:20 160 18 2.7 4.0 Light rain. Mist.
2015-Mar-29 09:50 160 17 2.7 4.0 Light rain. Mist.
2015-Mar-29 09:20 150 15 3.8 4.0 Light rain.
2015-Mar-29 08:50 160 17 3.8 4.0 Light rain.
2015-Mar-29 08:20 160 17 4.3 4.0 Light rain.
2015-Mar-29 07:50 160 17 4.9 4.0 Light rain.
2015-Mar-29 07:20 160 16 5.4 4.0 Light drizzle.
2015-Mar-29 06:50 160 14 5.4 4.0
2015-Mar-29 06:20 150 13 5.4 3.0
2015-Mar-29 05:50 150 12 5.4 3.0
2015-Mar-29 05:20 150 11 5.4 3.0
2015-Mar-29 04:50 140 12 5.4 2.0
2015-Mar-29 04:20 150 10 5.4 2.0
2015-Mar-29 03:50 140 9 2.0
2015-Mar-29 03:20 140 8 1.0
2015-Mar-29 02:50 140 9 1.0
2015-Mar-29 02:20 150 8 1.0
2015-Mar-29 01:50 150 9 1.0
2015-Mar-29 01:20 150 8 1.0
2015-Mar-29 00:50 140 8 -0.0
2015-Mar-29 00:20 130 8 -0.0